This is the latest recevied weather packets stored in our database for station/object DG4MJS-10. If no packets are shown the sender has not sent any weather packets the latest 10 day(s).
| Time | Temp. | Humidity | Pressure | Rain* | Wind** | Luminosity | Snow |
|---|---|---|---|---|---|---|---|
| 1787734764 | 20.56° C | 72% | 1017.8 hPa | - | - | - | - |
| 1787733864 | 20.56° C | 71% | 1017.8 hPa | - | - | - | - |
| 1787732964 | 20.56° C | 74% | 1017.9 hPa | - | - | - | - |
| 1787732064 | 20° C | 76% | 1017.7 hPa | - | - | - | - |
| 1787731164 | 20° C | 78% | 1017.6 hPa | - | - | - | - |
| 1787730263 | 20° C | 80% | 1017.7 hPa | - | - | - | - |
| 1787729363 | 19.44° C | 80% | 1017.5 hPa | - | - | - | - |
| 1787728463 | 19.44° C | 80% | 1017.4 hPa | - | - | - | - |
| 1787727563 | 19.44° C | 79% | 1017.1 hPa | - | - | - | - |
| 1787726663 | 18.89° C | 79% | 1017.2 hPa | - | - | - | - |
| 1787725763 | 18.33° C | 79% | 1017.2 hPa | - | - | - | - |
| 1787724863 | 18.33° C | 78% | 1017.2 hPa | - | - | - | - |
| 1787723963 | 18.33° C | 78% | 1017 hPa | - | - | - | - |
| 1787723063 | 18.33° C | 78% | 1017.1 hPa | - | - | - | - |
| 1787722163 | 18.33° C | 77% | 1017 hPa | - | - | - | - |
| 1787721263 | 18.33° C | 77% | 1017 hPa | - | - | - | - |
| 1787720363 | 18.33° C | 78% | 1016.8 hPa | - | - | - | - |
| 1787719463 | 18.33° C | 77% | 1016.7 hPa | - | - | - | - |
| 1787718562 | 18.33° C | 76% | 1016.6 hPa | - | - | - | - |
| 1787717663 | 18.33° C | 77% | 1016.5 hPa | - | - | - | - |
| 1787716763 | 18.33° C | 77% | 1016.6 hPa | - | - | - | - |
| 1787715863 | 18.33° C | 77% | 1016.9 hPa | - | - | - | - |
| 1787714963 | 18.33° C | 75% | 1016.9 hPa | - | - | - | - |
| 1787714062 | 18.33° C | 74% | 1016.7 hPa | - | - | - | - |
| 1787713162 | 18.33° C | 75% | 1016.6 hPa | - | - | - | - |
* Rain since midnight (hover to see other rain measurements)
** Current wind speed in m/s (hover to see current wind gust speed)